SCOUT A DEB, 2702

Orbit data source: Space-Track

SCOUT A DEB, 2702 is space debris in LEO originally from a launch on Thu, 18 Aug 1966 UTC launched from the Air Force Western Test Range (AFWTR). Debris objects in space refer to the collection of defunct objects orbiting the Earth. Examples of debris include non-operational satellites, rocket bodies, and fragments generated from explosions, collisions, or faulty payload assembly.

Loading next visibility...
Identifier
2702, 1966-076D
Orbit
LEO
Last TLE update
6 days ago
Origin
Manufacturer
Unknown
Mission
Spacecraft
Bus & Motor
Unknown
Mass
Unknown
Launch date (UTC)
1966-08-18 (59 years ago)
Launch vehicle
Unknown
Launch site
Air Force Western Test Range (AFWTR)
Object type
Payload
Rocket body
Debris
Shape & HBR
Unknown
Radar Cross Section
Small (<0.1 m²)

Expand to show TLE details & history

TLE from 6 days ago
0 SCOUT A DEB
1 02702U 66076D   25177.35305216  .00000081  00000-0  13099-3 0  9997
2 02702  88.5690 308.2519 0087800 196.6702 190.7558 13.36481498848801
Epoch: 2025-06-26T08:28Z
TLE epoch observation values (Epoch: 2025-06-26T08:28:23.706Z)
Latitude
27.26615°
Longitude
-92.8344°
Altitude
1,190.516 km
Speed
7.229 km/s
True Right ascension
20h 35m 56s
True Declination
27° 08' 04"
Sunlit
Object was in daylight at epoch
Visualization orbit readout
Latitude
72.75797°
Longitude
81.05551°
Altitude
1,116.102 km
Speed
7.31 km/s
Apparent Right ascension
22h 31m 01s
Apparent Declination
46° 32' 50"
Sunlit
Object is in daylight
Visualization observer readout
Local Sidereal Time
09:30:44
Azimuth
349.689° N
Elevation
-2.496°
Doppler factor
1
Orbital elements
Apogee altitude
1,185.319 km
Perigee altitude
1,053.66 km
Semi-major axis
7,497.626 km
Eccentricity
0.00878
Inclination
88.569°
RAAN
308.2519°
Arg. of periapsis
196.6702°
True anomaly
Unknown
Mean anomaly
190.7558°
Eccentric anomaly
Unknown
Mean motion
3.34316 °/min
Orbital period
107.68 mins
BSTAR
0.00013099
Loading maneuver chart data...
Loading SW <> Apogee altitude chart data...
Loading historical data...
Loading historical data...
Loading historical data...
Loading historical data...
Loading historical data...
Loading historical data...
Loading historical data...

SCOUT A DEB Visibility forecast

Observer location: undefined°, undefined°

Span
Click to sort rows by Start time (UTC) header in descending order
Start Az.
Max El. time (UTC)
Max El. Az.
Max El.
End time (UTC)
End Az.
9 mins2025-07-01 21:55:25.654Z328.736° NNW2025-07-01 21:59:25.654Z286.115° WNW22.579°2025-07-01 22:04:25.654Z234.184° WSW
12 mins2025-07-02 08:11:25.654Z153.212° SSE2025-07-02 08:17:25.654Z75.989° E37.992°2025-07-02 08:23:25.654Z11.278° NNE
10 mins2025-07-02 10:00:25.654Z230.749° WSW2025-07-02 10:05:25.654Z283.965° WNW24.87°2025-07-02 10:10:25.654Z333.526° NNW
9 mins2025-07-02 19:29:25.654Z31.488° NE2025-07-02 19:33:25.654Z78.043° E25.379°2025-07-02 19:38:25.654Z134.016° SE
11 mins2025-07-02 21:16:25.654Z343.14° N2025-07-02 21:21:25.654Z279.161° WNW34.972°2025-07-02 21:27:25.654Z209.196° SW
|